Temperature
20 20 20 20 23 24 24 23 24 23 23 22 22 22 23 22 22 21 17 17 17 17 17 17 17 17 17 17 17 17 18 18 17 17 17 17 17 17 17 17 17 17 17 17 17 17 17 17 17
19 20 20 22 24 24 23 23 23 23 22 21 21 22 22 21 19 18 17 17 17 17 17 17 17 17 17 17 17 17 17 17 17 17 17 17 17 17 17 17 17 17 17 17 17 17 17 17 17
20 20 21 24 24 24 23 23 23 22 22 22 21 21 21 20 19 18 17 17 17 17 17 17 17 17 17 17 17 17 17 17 17 17 17 17 17 17 16 16 16 16 16 17 17 17 17 17 17
19 20 22 24 23 23 23 23 23 23 22 22 22 21 20 19 19 18 17 17 17 17 17 17 17 17 17 17 17 17 17 17 17 16 16 16 16 16 16 16 16 16 16 16 17 17 17 17 17
20 22 24 23 23 23 23 23 23 23 23 22 22 21 19 18 18 18 17 17 17 17 17 17 17 17 17 17 17 17 17 17 16 16 16 16 16 16 16 16 16 16 16 16 16 16 17 17 17
21 24 24 23 23 23 23 22 23 23 22 22 22 21 19 18 18 18 17 17 17 17 17 17 17 17 17 17 17 17 16 16 16 16 16 16 16 16 16 16 16 16 16 16 16 16 16 16 17
22 24 23 23 23 22 23 22 23 23 22 22 22 21 19 18 18 18 17 17 17 17 17 17 17 17 17 17 17 17 16 16 16 16 16 16 16 16 16 16 16 16 16 16 16 16 16 16 16
21 24 23 23 23 22 22 22 22 22 22 21 21 22 20 18 18 18 18 18 17 17 17 17 17 17 17 17 17 17 16 16 16 16 16 16 16 16 16 15 16 16 16 16 16 16 16 16 16
21 23 23 23 23 22 22 22 22 21 21 20 21 21 20 18 18 18 18 18 18 17 17 17 17 17 17 16 16 16 16 16 16 16 16 16 16 16 16 16 16 16 16 16 16 16 16 16 16
22 23 23 23 23 23 22 22 22 22 22 21 20 19 19 18 18 18 18 18 18 18 18 17 17 17 17 16 16 16 16 16 16 16 16 16 16 15 15 15 16 16 16 16 16 16 16 16 16
23 22 22 22 22 22 22 22 21 22 22 22 21 20 19 19 19 19 19 19 18 18 18 17 17 17 17 17 16 16 16 16 16 16 16 15 15 16 15 15 15 15 15 15 15 16 16 16 16
23 22 22 22 21 22 22 22 21 21 21 21 21 20 19 19 19 19 19 19 18 18 17 17 17 17 17 17 16 16 16 16 16 16 15 15 15 15 15 15 15 15 15 15 15 15 16 16 16
23 22 21 21 21 21 21 21 21 21 20 20 20 20 19 20 19 19 19 19 18 18 17 17 17 17 17 17 16 16 16 16 16 15 15 15 15 15 15 15 15 15 15 15 15 15 15 16 16
22 22 22 22 21 21 22 22 21 20 20 20 20 20 20 20 19 19 19 19 19 18 18 17 17 17 17 17 17 16 16 16 16 15 15 15 15 15 15 15 15 15 15 15 15 15 15 15 15
22 22 22 22 22 22 22 22 22 20 20 20 20 20 19 19 19 19 19 19 19 18 18 17 17 17 17 16 16 16 16 16 15 15 15 15 15 15 15 15 15 15 15 15 15 15 15 15 15
23 23 22 22 22 22 22 22 22 20 21 21 20 20 19 19 19 19 19 19 18 18 18 17 17 17 16 16 16 16 16 15 15 15 15 15 15 15 15 15 15 14 14 15 15 15 15 15 15
23 22 22 22 22 23 23 22 22 20 21 21 20 20 19 19 19 19 18 18 18 18 18 17 17 17 16 16 16 16 15 15 15 15 15 15 15 15 15 14 14 14 14 14 14 14 15 15 15
22 23 22 22 22 22 22 22 22 21 21 21 21 20 20 20 19 19 18 18 18 18 18 17 17 17 16 16 16 15 15 15 15 15 15 14 14 14 14 14 14 14 14 14 14 14 14 14 15
23 23 22 22 22 22 22 22 22 21 21 21 21 21 20 20 19 19 18 18 18 18 18 17 17 17 16 16 16 15 15 15 15 15 14 14 14 14 14 14 14 14 14 14 14 14 14 14 14
23 22 22 22 22 22 22 22 22 22 21 21 21 21 20 20 19 18 18 18 18 18 18 17 17 17 16 16 16 16 15 15 15 15 14 14 14 14 14 14 14 14 14 14 14 14 14 14 14
23 23 23 22 21 22 22 22 22 22 21 21 21 21 20 20 19 19 18 18 18 18 17 17 17 17 16 16 16 16 15 15 15 14 14 14 14 14 14 14 14 14 14 14 14 14 14 14 14
22 23 22 22 22 22 22 22 23 22 22 22 21 20 20 19 19 19 18 18 18 18 17 17 17 16 16 16 16 15 15 15 15 15 14 14 14 14 14 14 14 14 14 14 14 13 13 14 14
22 22 22 22 22 22 22 23 23 23 22 22 22 21 20 19 19 19 18 18 18 18 17 17 17 16 16 16 16 15 15 15 15 15 14 14 14 14 14 14 14 14 14 14 14 13 13 13 13
22 22 22 22 22 22 23 23 23 23 23 23 22 21 20 19 19 19 18 18 18 17 17 17 17 16 16 16 16 16 15 15 15 15 15 14 14 14 14 14 14 14 14 14 14 13 13 13 13
22 22 21 21 21 22 23 23 23 24 23 23 22 21 21 20 19 18 18 18 18 17 17 17 17 16 16 16 16 16 15 15 15 15 15 14 14 14 14 14 14 14 14 14 13 13 13 13 13
22 23 22 21 22 22 22 23 23 23 22 22 22 21 20 19 19 18 18 18 18 17 17 17 17 17 16 16 16 16 16 15 15 15 14 14 14 14 14 14 14 14 14 13 13 13 13 13 13
22 23 23 23 23 23 23 23 23 22 22 22 21 21 20 19 19 19 18 18 18 18 17 17 17 17 16 16 16 16 16 15 15 15 14 14 14 14 14 14 14 14 14 13 13 13 13 13 13
23 23 23 23 22 22 23 23 23 23 22 22 21 21 20 19 19 18 18 18 18 18 17 17 17 17 16 16 16 16 16 15 15 15 14 14 14 14 14 14 14 13 13 13 13 13 13 13 13
22 23 23 23 23 23 22 23 24 24 23 23 22 21 20 19 19 18 18 18 18 17 17 17 17 17 16 16 16 16 16 15 15 15 15 14 14 14 14 14 13 13 13 13 13 13 13 13 13
23 24 23 23 23 23 23 23 23 24 23 23 22 21 20 19 19 18 18 18 17 17 17 17 17 17 16 16 16 16 16 15 15 15 14 14 14 14 14 14 13 13 13 13 13 13 13 13 12
Wind_Speed
2 1 2 2 3 2 5 5 4 4 4 4 4 4 6 7 5 5 5 7 9 10 11 12 12 13 13 13 14 14 14 14 13 13 13 12 12 12 11 11 11 10 10 10 9 9 8 8 7
1 1 2 2 2 4 5 5 6 6 5 5 5 6 7 8 7 7 6 8 10 10 11 12 13 13 13 13 14 14 14 13 13 12 12 12 11 11 11 10 10 10 10 9 9 9 8 8 7
1 2 2 1 1 4 5 6 6 6 5 4 4 5 6 6 6 6 9 11 11 11 11 13 12 13 13 13 13 13 13 13 12 12 11 11 10 10 10 9 9 9 9 9 9 8 8 7 7
2 2 2 2 6 6 5 5 5 6 5 5 5 7 7 7 5 9 12 12 12 11 12 13 12 13 13 12 13 13 12 11 11 10 10 9 9 9 9 9 9 9 9 9 9 8 8 7 7
2 2 2 4 6 5 5 4 4 5 5 6 7 9 8 7 10 12 12 11 11 11 11 13 12 12 12 12 12 11 11 10 9 9 9 9 8 9 8 8 8 8 8 8 8 8 7 7 6
2 2 3 5 6 5 4 3 4 6 7 8 9 10 8 8 10 10 11 10 10 10 10 12 13 11 11 11 11 10 10 9 9 9 9 8 8 8 8 8 8 7 7 7 7 7 6 6 6
1 1 3 6 6 5 4 3 4 6 7 6 6 9 8 9 9 9 10 9 9 9 9 9 11 11 11 10 10 9 9 8 8 8 8 8 8 8 8 7 7 7 7 6 6 6 6 5 5
1 2 5 5 6 5 4 4 4 5 7 6 4 7 9 11 10 9 9 9 8 8 8 8 8 8 8 9 9 8 8 8 7 7 7 6 5 5 4 5 8 7 7 7 6 6 5 4 4
2 3 5 4 4 5 5 5 5 5 7 5 5 7 11 14 12 10 8 8 8 7 6 6 6 7 6 7 7 6 6 5 3 5 5 2 4 5 4 9 8 7 7 7 7 6 4 2 1
1 3 4 3 3 5 5 5 5 5 7 7 9 10 13 13 11 10 9 8 8 7 6 5 5 6 6 5 5 4 4 4 4 5 5 4 5 5 5 4 4 5 4 2 4 3 2 4 1
2 3 4 3 4 5 5 5 3 5 6 7 10 13 14 12 10 9 8 7 7 7 6 5 5 5 4 4 4 4 4 4 4 5 5 4 4 4 4 4 3 3 3 4 3 2 3 3 4
3 4 3 4 4 4 4 4 5 4 4 6 10 13 14 12 10 9 7 6 6 6 5 5 4 4 4 4 4 3 4 4 4 5 5 4 4 4 5 4 5 5 4 5 5 4 4 4 4
4 4 4 4 5 5 6 5 5 5 5 8 12 13 12 11 9 8 7 6 6 6 5 5 4 4 4 5 3 4 4 4 5 4 5 5 4 4 5 4 5 5 5 4 4 4 4 4 4
4 5 5 5 6 4 6 6 5 6 8 11 12 12 11 9 8 8 7 6 6 5 5 5 4 4 4 4 4 4 4 4 4 4 5 6 5 5 5 5 5 5 5 5 4 4 4 4 4
6 7 6 4 4 4 5 6 5 6 9 11 11 11 9 8 7 7 6 5 5 5 5 5 4 4 4 5 5 4 4 4 4 5 6 6 6 5 5 5 5 5 5 5 5 5 4 3 3
6 6 5 4 3 3 4 6 6 6 8 10 10 10 9 7 6 6 5 5 5 5 5 6 4 5 5 5 4 4 4 4 4 5 5 6 6 7 6 5 5 5 5 5 4 5 4 3 3
5 6 7 5 3 3 4 6 6 6 8 8 9 9 8 7 6 5 5 5 5 5 5 6 5 5 5 5 5 4 4 4 4 5 5 5 6 6 6 5 5 6 5 5 5 5 5 4 4
6 6 6 5 3 4 6 7 7 6 7 8 9 9 8 8 7 6 6 5 6 6 6 6 6 6 6 5 4 4 4 3 4 4 5 6 5 6 6 4 5 6 4 5 5 5 4 4 3
4 5 5 4 3 5 7 7 7 7 7 7 8 9 8 8 7 6 6 6 7 7 6 6 6 6 5 4 3 3 3 3 3 3 5 5 5 6 5 4 5 5 5 5 6 5 5 4 4
6 7 6 5 4 3 6 6 5 6 7 7 8 8 9 8 8 7 7 7 7 7 6 6 6 5 4 3 3 2 3 2 3 3 4 5 5 5 5 5 4 4 4 5 5 5 4 4 4
6 6 6 6 6 4 5 6 7 6 5 6 7 7 8 9 9 8 8 8 7 7 6 5 5 5 4 3 3 3 3 2 2 3 3 4 5 5 5 5 5 4 4 4 5 5 5 4 4
4 3 5 7 6 5 5 5 8 8 8 8 9 9 9 9 9 8 8 9 8 7 7 6 6 5 4 4 2 2 2 2 3 2 3 3 4 4 4 4 5 5 4 4 4 5 4 4 4
3 5 6 6 4 4 6 4 6 8 10 10 10 10 9 10 10 9 9 9 8 8 7 6 6 5 4 3 3 2 2 2 2 2 2 3 3 4 4 4 4 4 4 5 5 5 5 4 4
7 7 6 5 5 5 6 5 5 7 10 10 11 11 11 10 10 10 9 9 8 8 7 6 6 5 4 3 3 2 2 1 1 2 2 2 2 3 4 3 3 3 4 4 4 4 4 4 5
7 7 4 5 5 4 4 5 3 4 5 8 11 12 12 11 11 11 11 10 10 9 8 7 6 5 4 4 3 2 2 1 1 2 2 2 2 3 4 3 3 3 4 4 4 4 4 4 4
9 8 4 3 3 3 5 5 2 3 4 7 9 11 12 12 11 11 11 11 10 10 9 8 7 6 5 4 3 2 2 1 1 1 2 2 3 3 3 3 3 3 4 4 3 3 3 4 4
7 6 3 2 2 3 4 3 3 4 6 9 10 11 12 12 12 12 11 10 10 10 9 8 7 6 5 4 3 2 2 1 1 1 2 2 2 3 3 3 3 3 4 4 3 3 3 4 4
4 5 5 5 3 3 3 4 4 8 9 11 12 12 13 13 12 12 11 10 10 9 9 8 7 6 5 5 4 3 2 2 1 1 2 2 3 3 3 3 3 3 3 3 3 3 4 4 3
7 7 6 5 4 3 2 2 1 6 9 12 13 13 13 13 13 11 10 10 10 9 9 8 7 6 5 5 4 3 2 2 1 1 2 2 2 2 3 3 3 3 3 4 3 4 4 4 4
7 8 8 6 5 4 3 1 3 4 7 10 12 12 12 12 12 11 10 10 10 10 9 9 8 6 5 5 4 3 3 2 1 1 1 1 2 2 3 3 3 3 4 4 4 4 4 4 5
Wind_Direction
211 248 270 260 223 130 89 82 85 88 78 65 62 70 74 56 47 75 96 114 112 113 112 111 104 102 99 99 99 97 95 93 91 88 84 81 78 75 72 70 66 62 60 56 50 47 46 44 43
248 268 254 257 227 127 100 95 85 75 94 99 82 81 77 70 67 92 111 114 118 113 112 107 107 103 101 99 98 97 95 92 88 85 82 79 75 71 67 63 61 57 54 50 45 41 40 39 40
190 267 280 250 102 93 102 91 87 92 101 108 95 72 66 75 85 102 115 122 117 112 109 108 111 107 104 99 97 96 93 91 88 84 81 78 75 71 65 59 55 52 49 47 43 38 36 34 34
238 234 236 134 97 74 82 92 103 116 101 94 107 90 79 64 85 109 122 122 115 112 109 107 109 106 103 101 98 94 92 90 86 82 79 76 72 67 62 55 50 48 45 44 40 35 31 30 29
252 255 163 123 101 91 86 84 107 104 101 97 104 99 90 76 98 116 124 122 116 112 107 108 105 105 103 100 96 93 90 86 82 78 74 69 65 61 55 51 48 46 41 36 33 29 27 27 25
235 228 164 130 112 103 93 83 104 99 101 103 107 106 96 108 115 121 123 121 116 113 111 110 108 103 99 95 91 88 85 80 74 70 66 62 58 54 49 46 44 40 36 33 28 25 22 23 24
266 166 135 127 123 114 95 89 91 105 108 104 114 111 118 126 124 126 124 121 116 115 113 112 116 115 109 97 87 82 77 73 69 64 62 59 56 53 47 45 39 34 31 27 22 20 20 21 23
309 166 139 131 128 111 103 103 94 100 105 108 112 119 134 141 138 130 124 121 119 117 114 111 111 111 108 104 91 80 74 71 68 63 59 60 75 75 56 49 43 30 28 24 20 19 19 19 22
252 178 141 125 118 111 117 119 104 107 116 108 96 102 123 136 141 137 131 127 123 122 118 117 113 105 101 94 94 93 92 80 92 91 79 45 42 43 49 43 34 29 30 30 24 21 15 332 143
203 152 116 95 106 118 118 114 118 130 125 119 114 112 128 142 146 145 141 136 133 130 122 119 116 110 102 90 90 75 71 69 54 59 56 38 34 32 23 72 48 35 24 48 38 356 275 275 16
127 113 112 111 111 120 118 110 114 130 123 132 137 139 146 148 151 147 141 136 130 129 124 121 119 114 106 101 84 67 60 67 61 51 52 37 31 31 23 13 34 25 355 13 21 316 6 360 13
125 109 114 121 126 130 117 118 114 107 98 124 136 142 148 153 154 150 144 136 135 130 126 120 119 120 116 101 85 66 61 61 59 50 39 33 27 17 24 16 15 6 14 9 1 356 6 354 352
130 119 113 116 119 125 122 118 113 103 103 127 133 140 148 150 150 145 140 139 139 134 130 121 120 110 110 103 93 85 70 54 65 50 33 35 26 22 19 20 19 11 7 1 360 352 7 354 359
117 121 122 125 127 130 124 116 119 104 123 131 135 142 147 147 148 145 145 144 140 137 135 128 122 112 108 102 96 85 83 74 57 50 35 34 33 23 16 20 20 13 7 3 352 5 354 358 3
138 132 122 115 123 134 140 120 117 119 137 137 140 141 140 145 150 148 144 139 134 134 129 124 121 118 109 96 89 89 85 74 60 50 40 42 34 25 25 17 20 15 7 3 0 3 349 354 349
163 161 144 117 134 157 181 132 119 137 148 145 146 145 148 151 154 148 141 137 129 130 123 124 129 126 114 104 102 98 88 73 63 56 45 40 36 30 25 20 20 16 11 7 6 358 351 353 345
174 163 149 138 141 163 168 139 136 152 159 154 155 155 158 157 155 151 145 140 133 132 129 129 127 123 115 109 108 97 89 76 63 57 48 35 32 24 26 21 13 15 12 9 4 8 358 3 354
163 157 156 150 139 166 158 146 145 159 168 166 163 164 164 161 156 150 146 142 139 135 132 128 125 124 120 120 115 104 91 80 66 55 45 33 23 20 20 19 16 16 14 11 8 11 7 3 349
161 165 157 137 139 167 162 156 157 160 170 177 173 169 164 157 147 144 145 146 145 138 134 128 130 128 129 122 119 111 99 84 72 53 46 33 21 15 19 7 14 10 18 11 6 8 10 11 359
173 169 160 136 139 169 160 161 160 174 183 188 182 173 168 164 159 152 150 151 150 143 141 139 138 137 131 114 107 101 89 78 66 52 44 29 23 20 15 15 14 18 13 15 13 10 1 10 2
184 187 170 153 150 164 164 178 181 180 189 192 193 183 176 178 172 162 160 155 153 152 150 149 146 140 130 127 117 117 111 114 90 63 43 28 27 31 25 22 16 11 16 22 13 9 8 4 12
178 164 167 166 177 171 203 193 190 189 191 193 191 188 184 180 178 170 167 163 161 153 150 153 151 145 145 150 146 127 99 75 61 41 43 44 39 34 28 20 16 17 21 25 18 19 9 360 8
150 148 166 178 191 192 204 224 177 186 199 197 193 190 185 181 179 174 171 167 162 155 153 153 152 149 149 154 145 158 111 83 69 58 55 38 48 37 29 17 16 19 23 23 15 12 10 11 4
148 151 155 186 212 218 205 225 191 188 203 191 188 189 183 179 177 173 165 162 159 156 155 156 157 151 155 162 167 158 124 105 71 54 43 39 48 39 33 19 15 20 21 18 10 9 15 10 5
192 188 189 197 208 209 178 227 216 171 194 193 186 186 182 177 175 171 167 166 164 162 162 162 161 160 163 171 171 152 147 133 70 36 37 22 30 28 20 14 14 17 15 13 6 8 8 9 1
198 217 230 224 209 176 187 222 168 142 180 187 184 179 176 174 174 172 172 170 167 166 166 166 165 162 164 171 162 151 140 121 69 40 24 20 21 23 15 11 16 16 8 4 8 357 3 358 357
192 211 251 262 222 219 191 192 179 156 167 171 172 171 175 175 174 172 171 170 167 167 169 170 166 164 165 165 153 145 132 107 73 36 29 25 25 24 19 10 11 16 7 358 357 4 3 356 355
229 193 205 231 227 220 201 211 195 173 175 174 175 177 175 174 172 171 170 169 168 167 168 167 166 164 163 159 149 142 143 125 74 39 35 28 26 24 13 3 1 5 4 359 352 352 359 354 0
184 197 217 229 247 250 221 174 153 182 180 181 181 178 174 172 172 170 169 167 164 163 164 165 166 165 163 161 154 147 142 130 107 65 44 32 25 17 6 3 358 357 353 353 353 351 353 346 346
222 219 217 224 216 233 255 143 101 176 177 180 178 174 172 171 170 168 165 163 163 164 165 166 165 162 161 163 160 153 152 149 148 82 43 30 26 17 11 5 357 356 351 347 345 343 340 339 340
Height
1517 1517 1516 1517 1515 1513 1517 1517 1515 1517 1519 1522 1522 1521 1521 1523 1526 1535 1536 1535 1536 1537 1537 1538 1538 1539 1540 1541 1541 1542 1543 1543 1543 1544 1544 1544 1544 1544 1544 1544 1543 1543 1543 1542 1542 1542 1541 1541 1540
1518 1517 1518 1517 1512 1517 1520 1517 1518 1519 1522 1523 1523 1524 1524 1528 1531 1534 1535 1536 1538 1539 1540 1540 1540 1541 1542 1542 1543 1543 1544 1544 1545 1545 1545 1545 1545 1545 1545 1545 1544 1544 1544 1543 1543 1542 1542 1541 1541
1518 1518 1519 1514 1513 1517 1520 1518 1520 1522 1524 1524 1525 1526 1528 1532 1534 1536 1537 1538 1540 1541 1542 1541 1542 1543 1544 1544 1545 1545 1546 1546 1546 1546 1546 1546 1546 1546 1546 1546 1545 1545 1544 1544 1543 1543 1542 1542 1541
1519 1520 1519 1515 1519 1519 1519 1520 1522 1522 1524 1525 1526 1529 1532 1536 1537 1538 1539 1541 1542 1543 1544 1543 1544 1545 1546 1546 1547 1547 1548 1548 1548 1548 1548 1548 1548 1547 1547 1547 1546 1545 1545 1544 1544 1543 1543 1542 1541
1520 1519 1516 1518 1519 1520 1521 1522 1522 1522 1524 1527 1527 1530 1535 1538 1538 1540 1541 1543 1544 1545 1546 1546 1546 1547 1548 1549 1549 1550 1550 1550 1550 1550 1550 1550 1549 1549 1548 1548 1547 1546 1546 1545 1544 1544 1543 1543 1542
1521 1517 1517 1521 1521 1522 1523 1524 1524 1524 1526 1529 1530 1532 1538 1541 1541 1542 1544 1545 1546 1547 1548 1549 1549 1550 1550 1551 1551 1552 1552 1552 1552 1551 1551 1551 1550 1550 1549 1548 1548 1547 1546 1545 1545 1544 1544 1543 1543
1521 1516 1518 1519 1522 1523 1525 1525 1525 1526 1528 1530 1532 1534 1540 1542 1543 1545 1546 1547 1549 1550 1551 1552 1552 1553 1553 1553 1553 1554 1554 1554 1553 1553 1553 1552 1552 1551 1550 1549 1549 1548 1547 1546 1545 1545 1544 1543 1543
1521 1518 1519 1519 1522 1525 1526 1527 1528 1528 1530 1533 1534 1535 1540 1544 1545 1546 1548 1550 1551 1552 1553 1553 1554 1555 1556 1556 1555 1555 1555 1555 1555 1554 1554 1553 1553 1552 1551 1551 1549 1548 1548 1547 1546 1545 1544 1544 1543
1522 1520 1521 1521 1523 1525 1527 1528 1530 1531 1532 1534 1536 1537 1541 1543 1546 1548 1549 1551 1552 1553 1554 1555 1556 1557 1557 1557 1557 1557 1557 1556 1556 1556 1555 1555 1555 1555 1553 1551 1550 1549 1548 1547 1546 1545 1545 1544 1544
1521 1521 1522 1523 1523 1525 1528 1529 1531 1532 1533 1535 1538 1540 1542 1544 1547 1549 1550 1552 1554 1555 1556 1557 1558 1558 1559 1559 1559 1559 1559 1558 1558 1558 1557 1556 1556 1555 1553 1552 1550 1549 1548 1548 1547 1546 1545 1546 1546
1521 1522 1523 1525 1526 1527 1528 1530 1531 1532 1533 1535 1538 1541 1544 1546 1548 1550 1552 1554 1555 1556 1557 1558 1559 1559 1560 1560 1560 1560 1560 1559 1559 1559 1558 1557 1556 1556 1555 1554 1553 1551 1550 1549 1548 1548 1547 1547 1546
1522 1524 1525 1526 1528 1529 1529 1531 1533 1534 1536 1538 1539 1541 1545 1547 1549 1551 1553 1555 1556 1557 1558 1558 1560 1560 1561 1561 1561 1561 1561 1561 1560 1559 1559 1558 1557 1556 1555 1554 1553 1552 1551 1549 1549 1548 1547 1547 1546
1522 1525 1526 1528 1529 1530 1531 1532 1534 1536 1538 1539 1541 1544 1546 1548 1551 1553 1554 1556 1557 1558 1558 1559 1560 1561 1561 1561 1561 1561 1561 1561 1561 1559 1560 1559 1558 1557 1556 1555 1553 1552 1551 1550 1549 1548 1548 1547 1546
1524 1525 1527 1529 1530 1531 1532 1533 1535 1538 1540 1541 1543 1545 1547 1550 1552 1553 1555 1556 1558 1558 1559 1560 1561 1561 1562 1562 1562 1562 1562 1561 1562 1561 1560 1560 1559 1558 1556 1556 1554 1552 1551 1550 1549 1549 1547 1547 1546
1525 1526 1527 1529 1530 1531 1532 1534 1536 1539 1541 1543 1544 1547 1549 1551 1553 1554 1556 1557 1558 1559 1560 1561 1561 1562 1562 1563 1562 1563 1563 1563 1562 1561 1561 1560 1559 1558 1557 1556 1555 1553 1552 1551 1550 1549 1548 1547 1546
1524 1525 1529 1530 1530 1532 1534 1537 1538 1540 1541 1543 1545 1548 1550 1552 1553 1555 1557 1558 1559 1560 1561 1561 1562 1563 1563 1563 1563 1563 1564 1563 1563 1562 1562 1561 1560 1559 1557 1556 1555 1554 1552 1551 1550 1548 1548 1547 1546
1523 1526 1529 1530 1530 1531 1531 1536 1538 1540 1542 1544 1546 1548 1550 1552 1554 1556 1557 1558 1559 1560 1561 1562 1562 1563 1563 1563 1563 1564 1564 1564 1564 1563 1562 1562 1561 1560 1558 1556 1555 1554 1553 1551 1550 1549 1548 1547 1546
1526 1526 1528 1530 1530 1530 1532 1534 1537 1540 1541 1543 1545 1548 1550 1552 1554 1556 1557 1558 1559 1560 1561 1562 1563 1564 1564 1564 1565 1564 1565 1565 1564 1564 1563 1562 1561 1560 1559 1557 1556 1554 1553 1552 1551 1549 1548 1547 1546
1522 1525 1528 1529 1531 1531 1532 1534 1536 1539 1541 1543 1544 1546 1549 1552 1554 1556 1557 1558 1560 1561 1562 1563 1564 1564 1564 1565 1566 1566 1566 1566 1565 1564 1564 1562 1561 1560 1559 1558 1556 1555 1554 1552 1551 1550 1549 1548 1546
1523 1526 1528 1530 1531 1531 1532 1534 1536 1539 1540 1542 1543 1546 1548 1551 1553 1555 1557 1558 1560 1561 1562 1563 1564 1565 1565 1565 1566 1566 1566 1566 1566 1565 1564 1563 1562 1560 1559 1558 1557 1555 1554 1553 1551 1550 1549 1548 1547
1524 1525 1526 1530 1532 1531 1533 1537 1535 1537 1540 1542 1543 1545 1547 1550 1552 1554 1556 1558 1560 1561 1562 1563 1564 1565 1566 1566 1567 1566 1566 1567 1567 1566 1565 1563 1562 1561 1560 1558 1557 1556 1555 1553 1552 1551 1549 1549 1548
1526 1524 1526 1529 1531 1534 1533 1539 1533 1533 1536 1539 1541 1544 1546 1549 1551 1553 1555 1557 1559 1561 1562 1564 1565 1566 1566 1567 1567 1568 1568 1568 1567 1567 1565 1564 1563 1562 1560 1559 1558 1556 1555 1554 1553 1552 1550 1549 1549
1525 1526 1526 1528 1529 1532 1531 1534 1530 1530 1533 1534 1538 1541 1544 1547 1550 1552 1554 1557 1559 1561 1562 1564 1565 1566 1567 1567 1567 1568 1569 1568 1568 1567 1566 1565 1564 1562 1561 1560 1558 1557 1556 1555 1553 1552 1551 1550 1549
1525 1527 1528 1528 1529 1538 1530 1532 1531 1526 1526 1529 1534 1539 1542 1546 1549 1551 1553 1556 1558 1560 1562 1563 1565 1566 1567 1567 1568 1568 1568 1568 1568 1567 1567 1566 1565 1563 1562 1560 1559 1558 1557 1555 1554 1553 1552 1550 1549
1525 1527 1536 1538 1539 1535 1527 1530 1526 1521 1524 1527 1531 1536 1540 1544 1547 1550 1552 1555 1557 1559 1561 1563 1564 1566 1566 1567 1568 1569 1568 1568 1568 1568 1567 1566 1565 1564 1562 1561 1560 1559 1557 1556 1554 1553 1552 1551 1550
1521 1522 1532 1539 1538 1531 1528 1528 1521 1522 1525 1527 1531 1534 1539 1542 1545 1548 1551 1553 1556 1558 1561 1563 1564 1565 1566 1567 1568 1568 1568 1568 1568 1567 1567 1566 1565 1564 1562 1561 1560 1559 1557 1556 1555 1554 1552 1551 1550
1521 1521 1519 1523 1525 1529 1525 1521 1519 1521 1524 1526 1530 1533 1537 1540 1544 1547 1550 1552 1555 1558 1560 1562 1564 1565 1566 1567 1567 1568 1568 1568 1568 1567 1567 1566 1565 1564 1562 1561 1560 1559 1557 1556 1555 1553 1552 1551 1550
1517 1516 1521 1523 1533 1534 1527 1523 1519 1519 1521 1524 1528 1531 1535 1539 1542 1545 1548 1551 1554 1557 1559 1561 1563 1564 1565 1566 1567 1567 1567 1567 1567 1567 1566 1566 1565 1564 1563 1562 1560 1559 1557 1556 1555 1554 1552 1551 1549
1518 1519 1518 1518 1520 1528 1531 1524 1510 1513 1516 1520 1525 1529 1533 1537 1540 1544 1547 1550 1552 1555 1558 1560 1562 1564 1565 1566 1566 1567 1567 1567 1567 1567 1566 1565 1564 1563 1563 1561 1560 1559 1558 1556 1555 1554 1552 1551 1550
1511 1511 1514 1521 1522 1520 1523 1522 1511 1512 1516 1519 1523 1528 1532 1535 1539 1542 1545 1548 1551 1554 1557 1559 1561 1562 1564 1564 1565 1566 1566 1566 1566 1566 1566 1565 1564 1563 1562 1561 1560 1559 1557 1556 1555 1553 1552 1550 1549